| time (UTC) | temp F | wind direction | speed knots | gust knots | rain 1hr in | rain 24hr in | rain mn in | humidity % | barometer mb |
| 20260906192521 | 102 | 90 | 0.9 | 7.8 | 0.00 | 0.00 | 0.00 | 31 | 1014.1 |
| 20260906191521 | 102 | 64 | 0.0 | 0.0 | 0.00 | 0.00 | 0.00 | 30 | 1014.3 |
| 20260906190521 | 102 | 90 | 0.0 | 6.1 | 0.00 | 0.00 | 0.00 | 31 | 1014.6 |
| 20260906185521 | 102 | 113 | 0.0 | 0.9 | 0.00 | 0.00 | 0.00 | 32 | 1014.8 |
| 20260906184523 | 100 | 113 | 0.0 | 0.9 | 0.00 | 0.00 | 0.00 | 32 | 1014.9 |
| 20260906183521 | 101 | 68 | 0.0 | 8.7 | 0.00 | 0.00 | 0.00 | 33 | 1015.2 |
| 20260906182521 | 99 | 180 | 0.0 | 0.9 | 0.00 | 0.00 | 0.00 | 34 | 1015.3 |
| 20260906181521 | 100 | 180 | 0.0 | 4.3 | 0.00 | 0.00 | 0.00 | 33 | 1015.7 |
| 20260906180521 | 99 | 158 | 0.0 | 1.7 | 0.00 | 0.00 | 0.00 | 34 | 1015.7 |
| 20260906175521 | 99 | 90 | 0.0 | 0.9 | 0.00 | 0.00 | 0.00 | 34 | 1015.9 |
| 20260906174521 | 100 | 158 | 0.0 | 0.0 | 0.00 | 0.00 | 0.00 | 34 | 1016.2 |
| 20260906173521 | 99 | 148 | 0.0 | 0.0 | 0.00 | 0.00 | 0.00 | 35 | 1016.3 |
| 20260906172521 | 99 | 158 | 0.0 | 5.2 | 0.00 | 0.00 | 0.00 | 35 | 1016.4 |
| 20260906171521 | 98 | 213 | 0.0 | 0.0 | 0.00 | 0.00 | 0.00 | 37 | 1016.7 |
| 20260906170521 | 98 | 158 | 0.0 | 3.5 | 0.00 | 0.00 | 0.00 | 36 | 1016.7 |
| 20260906165521 | 98 | 203 | 0.0 | 0.9 | 0.00 | 0.00 | 0.00 | 36 | 1016.9 |
| 20260906164521 | 97 | 135 | 0.0 | 0.9 | 0.00 | 0.00 | 0.00 | 37 | 1016.9 |
| 20260906163522 | 96 | 158 | 0.0 | 0.0 | 0.00 | 0.00 | 0.00 | 38 | 1017.0 |
| 20260906162521 | 97 | 204 | 0.0 | 0.0 | 0.00 | 0.00 | 0.00 | 38 | 1017.1 |
| 20260906161521 | 96 | 180 | 0.0 | 0.0 | 0.00 | 0.00 | 0.00 | 39 | 1016.9 |
| 20260906160521 | 95 | 187 | 0.0 | 0.0 | 0.00 | 0.00 | 0.00 | 40 | 1017.0 |
| 20260906155521 | 95 | 148 | 0.0 | 0.0 | 0.00 | 0.00 | 0.00 | 40 | 1017.0 |
| 20260906154521 | 95 | 166 | 0.0 | 0.0 | 0.00 | 0.00 | 0.00 | 41 | 1017.0 |
| 20260906153521 | 94 | 180 | 0.0 | 2.6 | 0.00 | 0.00 | 0.00 | 41 | 1016.7 |
| 20260906152521 | 93 | 172 | 0.0 | 0.0 | 0.00 | 0.00 | 0.00 | 43 | 1016.7 |
| 20260906151521 | 92 | 180 | 0.0 | 0.9 | 0.00 | 0.00 | 0.00 | 44 | 1016.5 |
| 20260906150521 | 91 | 209 | 0.0 | 0.0 | 0.00 | 0.00 | 0.00 | 45 | 1016.7 |
| 20260906145521 | 91 | 184 | 0.0 | 0.0 | 0.00 | 0.00 | 0.00 | 48 | 1016.6 |
| 20260906144521 | 89 | 169 | 0.0 | 0.0 | 0.00 | 0.00 | 0.00 | 50 | 1016.5 |
| 20260906143521 | 89 | 153 | 0.0 | 0.0 | 0.00 | 0.00 | 0.00 | 50 | 1016.5 |
| 20260906142521 | 89 | 154 | 0.0 | 0.0 | 0.00 | 0.00 | 0.00 | 50 | 1016.5 |
| 20260906141520 | 89 | 153 | 0.0 | 0.0 | 0.00 | 0.00 | 0.00 | 51 | 1016.5 |
| 20260906140521 | 88 | 145 | 0.0 | 0.0 | 0.00 | 0.00 | 0.00 | 52 | 1016.6 |
| 20260906135521 | 86 | 131 | 0.0 | 0.0 | 0.00 | 0.00 | 0.00 | 55 | 1016.4 |
| 20260906134521 | 85 | 135 | 0.0 | 0.9 | 0.00 | 0.00 | 0.00 | 57 | 1016.3 |
| 20260906133521 | 84 | 134 | 0.0 | 0.0 | 0.00 | 0.00 | 0.00 | 59 | 1016.3 |
| 20260906132520 | 82 | 65 | 0.0 | 0.0 | 0.00 | 0.00 | 0.00 | 62 | 1016.2 |
| 20260906131521 | 80 | 65 | 0.0 | 0.0 | 0.00 | 0.00 | 0.00 | 64 | 1016.0 |
| 20260906130521 | 79 | 65 | 0.0 | 0.0 | 0.00 | 0.00 | 0.00 | 67 | 1016.0 |
| 20260906125521 | 77 | 28 | 0.0 | 0.0 | 0.00 | 0.00 | 0.00 | 69 | 1015.7 |
| 20260906124520 | 76 | 28 | 0.0 | 0.0 | 0.00 | 0.00 | 0.00 | 72 | 1015.4 |
| 20260906123520 | 74 | 145 | 0.0 | 0.0 | 0.00 | 0.00 | 0.00 | 77 | 1015.4 |
| 20260906122520 | 73 | 151 | 0.0 | 0.0 | 0.00 | 0.00 | 0.00 | 78 | 1015.3 |
| 20260906121520 | 73 | 150 | 0.0 | 0.0 | 0.00 | 0.00 | 0.00 | 77 | 1015.0 |
| 20260906120520 | 73 | 150 | 0.0 | 0.0 | 0.00 | 0.00 | 0.00 | 76 | 1014.9 |
| 20260906115520 | 73 | 150 | 0.0 | 0.0 | 0.00 | 0.00 | 0.00 | 75 | 1014.6 |
| 20260906114520 | 74 | 151 | 0.0 | 0.0 | 0.00 | 0.00 | 0.00 | 75 | 1014.6 |
| 20260906113520 | 74 | 151 | 0.0 | 0.0 | 0.00 | 0.00 | 0.00 | 73 | 1014.6 |
| 20260906112520 | 74 | 151 | 0.0 | 0.0 | 0.00 | 0.00 | 0.00 | 72 | 1014.6 |
| 20260906111520 | 75 | 151 | 0.0 | 0.0 | 0.00 | 0.00 | 0.00 | 70 | 1014.6 |
| 20260906110520 | 75 | 151 | 0.0 | 0.0 | 0.00 | 0.00 | 0.00 | 71 | 1014.6 |
| 20260906105520 | 75 | 150 | 0.0 | 0.0 | 0.00 | 0.00 | 0.00 | 72 | 1014.5 |
| 20260906104520 | 75 | 150 | 0.0 | 0.0 | 0.00 | 0.00 | 0.00 | 72 | 1014.5 |
| 20260906103520 | 74 | 150 | 0.0 | 0.0 | 0.00 | 0.00 | 0.00 | 73 | 1014.7 |
| 20260906102520 | 74 | 150 | 0.0 | 0.0 | 0.00 | 0.00 | 0.00 | 75 | 1014.6 |
| 20260906101520 | 73 | 150 | 0.0 | 0.0 | 0.00 | 0.00 | 0.00 | 74 | 1014.7 |
| 20260906100520 | 74 | 150 | 0.0 | 0.0 | 0.00 | 0.00 | 0.00 | 72 | 1014.6 |
| 20260906095520 | 75 | 150 | 0.0 | 0.0 | 0.00 | 0.00 | 0.00 | 69 | 1014.7 |
| 20260906094520 | 76 | 150 | 0.0 | 0.0 | 0.00 | 0.00 | 0.00 | 69 | 1014.7 |
| 20260906093520 | 76 | 150 | 0.0 | 0.0 | 0.00 | 0.00 | 0.00 | 68 | 1014.6 |
| 20260906092520 | 76 | 150 | 0.0 | 0.0 | 0.00 | 0.00 | 0.00 | 68 | 1014.5 |
| 20260906091520 | 77 | 150 | 0.0 | 0.0 | 0.00 | 0.00 | 0.00 | 67 | 1014.5 |
| 20260906090520 | 77 | 150 | 0.0 | 0.0 | 0.00 | 0.00 | 0.00 | 68 | 1014.4 |
| 20260906085520 | 77 | 134 | 0.0 | 0.0 | 0.00 | 0.00 | 0.00 | 68 | 1014.5 |
| 20260906084520 | 76 | 134 | 0.0 | 0.0 | 0.00 | 0.00 | 0.00 | 68 | 1014.4 |
| 20260906083520 | 76 | 134 | 0.0 | 0.0 | 0.00 | 0.00 | 0.00 | 68 | 1014.4 |
| 20260906082520 | 77 | 134 | 0.0 | 0.0 | 0.00 | 0.00 | 0.00 | 68 | 1014.5 |
| 20260906081520 | 77 | 132 | 0.0 | 0.0 | 0.00 | 0.00 | 0.00 | 68 | 1014.5 |
| 20260906080520 | 77 | 135 | 0.0 | 0.0 | 0.00 | 0.00 | 0.00 | 67 | 1014.5 |
| 20260906075520 | 77 | 135 | 0.0 | 0.0 | 0.00 | 0.00 | 0.00 | 67 | 1014.4 |
| 20260906074522 | 77 | 135 | 0.0 | 0.0 | 0.00 | 0.00 | 0.00 | 66 | 1014.5 |
| 20260906073522 | 77 | 135 | 0.0 | 0.0 | 0.00 | 0.00 | 0.00 | 65 | 1014.4 |
| 20260906072522 | 78 | 135 | 0.0 | 0.0 | 0.00 | 0.00 | 0.00 | 65 | 1014.4 |
| 20260906071522 | 78 | 135 | 0.0 | 0.0 | 0.00 | 0.00 | 0.00 | 64 | 1014.4 |
| 20260906070522 | 78 | 135 | 0.0 | 0.0 | 0.00 | 0.00 | 0.00 | 64 | 1014.3 |
| 20260906065522 | 78 | 135 | 0.0 | 0.0 | 0.00 | 0.00 | 0.00 | 64 | 1014.3 |
| 20260906064522 | 79 | 135 | 0.0 | 0.0 | 0.00 | 0.00 | 0.00 | 63 | 1014.2 |
| 20260906063522 | 79 | 135 | 0.0 | 0.0 | 0.00 | 0.00 | 0.00 | 63 | 1014.2 |
| 20260906062522 | 79 | 144 | 0.0 | 0.0 | 0.00 | 0.00 | 0.00 | 63 | 1014.2 |
| 20260906061522 | 79 | 144 | 0.0 | 0.0 | 0.00 | 0.00 | 0.00 | 63 | 1014.2 |
| 20260906060522 | 80 | 156 | 0.0 | 0.0 | 0.00 | 0.00 | 0.00 | 61 | 1014.5 |
| 20260906055522 | 80 | 108 | 0.0 | 0.0 | 0.00 | 0.00 | 0.00 | 61 | 1014.4 |
| 20260906054522 | 81 | 68 | 0.0 | 0.0 | 0.00 | 0.00 | 0.00 | 61 | 1014.5 |
| 20260906053522 | 81 | 68 | 0.0 | 0.0 | 0.00 | 0.00 | 0.00 | 61 | 1014.4 |
| 20260906052522 | 80 | 68 | 0.0 | 0.0 | 0.00 | 0.00 | 0.00 | 61 | 1014.3 |
| 20260906051522 | 80 | 68 | 0.0 | 0.0 | 0.00 | 0.00 | 0.00 | 62 | 1014.3 |
| 20260906050522 | 80 | 76 | 0.0 | 0.0 | 0.00 | 0.00 | 0.00 | 61 | 1014.2 |
| 20260906045522 | 80 | 90 | 0.0 | 0.0 | 0.00 | 0.00 | 0.00 | 61 | 1014.3 |
| 20260906044522 | 80 | 132 | 0.0 | 0.0 | 0.00 | 0.00 | 0.00 | 61 | 1014.3 |
| 20260906043522 | 80 | 148 | 0.0 | 0.0 | 0.00 | 0.00 | 0.00 | 61 | 1014.2 |
| 20260906042522 | 80 | 148 | 0.0 | 0.0 | 0.00 | 0.00 | 0.00 | 61 | 1014.2 |
| 20260906041522 | 81 | 148 | 0.0 | 0.0 | 0.00 | 0.00 | 0.00 | 60 | 1014.3 |
| 20260906040522 | 81 | 148 | 0.0 | 0.0 | 0.00 | 0.00 | 0.00 | 59 | 1014.2 |
| 20260906035521 | 82 | 148 | 0.0 | 0.0 | 0.00 | 0.00 | 0.00 | 57 | 1014.1 |
| 20260906034521 | 82 | 148 | 0.0 | 0.0 | 0.00 | 0.00 | 0.00 | 57 | 1014.0 |
| 20260906033521 | 83 | 148 | 0.0 | 0.0 | 0.00 | 0.00 | 0.00 | 56 | 1013.8 |
| 20260906032521 | 83 | 150 | 0.0 | 0.0 | 0.00 | 0.00 | 0.00 | 55 | 1013.6 |
| 20260906031521 | 83 | 150 | 0.0 | 0.0 | 0.00 | 0.00 | 0.00 | 55 | 1013.5 |
| 20260906030521 | 83 | 150 | 0.0 | 0.0 | 0.00 | 0.00 | 0.00 | 55 | 1013.4 |
| 20260906025521 | 83 | 150 | 0.0 | 0.0 | 0.00 | 0.00 | 0.00 | 54 | 1013.1 |
| 20260906024520 | 84 | 150 | 0.0 | 0.0 | 0.00 | 0.00 | 0.00 | 53 | 1013.1 |
| 20260906023520 | 85 | 150 | 0.0 | 0.0 | 0.00 | 0.00 | 0.00 | 53 | 1013.0 |
| 20260906022521 | 85 | 150 | 0.0 | 0.0 | 0.00 | 0.00 | 0.00 | 52 | 1012.9 |
| 20260906021520 | 85 | 150 | 0.0 | 0.0 | 0.00 | 0.00 | 0.00 | 51 | 1012.7 |
| 20260906020521 | 86 | 150 | 0.0 | 0.0 | 0.00 | 0.00 | 0.00 | 50 | 1012.4 |
| 20260906015520 | 86 | 150 | 0.0 | 0.0 | 0.00 | 0.00 | 0.00 | 49 | 1012.2 |
| 20260906014520 | 87 | 150 | 0.0 | 0.0 | 0.00 | 0.00 | 0.00 | 48 | 1012.3 |
| 20260906013521 | 87 | 150 | 0.0 | 0.0 | 0.00 | 0.00 | 0.00 | 48 | 1012.1 |
| 20260906012520 | 88 | 150 | 0.0 | 0.0 | 0.00 | 0.00 | 0.00 | 46 | 1012.0 |
| 20260906011520 | 89 | 150 | 0.0 | 0.0 | 0.00 | 0.00 | 0.00 | 45 | 1012.0 |
| 20260906010520 | 89 | 153 | 0.0 | 0.0 | 0.00 | 0.00 | 0.00 | 44 | 1012.0 |
| 20260906005520 | 90 | 135 | 0.0 | 1.7 | 0.00 | 0.00 | 0.00 | 43 | 1012.0 |
| 20260906004520 | 91 | 137 | 0.0 | 0.0 | 0.00 | 0.00 | 0.00 | 42 | 1012.0 |
| 20260906003520 | 92 | 136 | 0.0 | 0.0 | 0.00 | 0.00 | 0.00 | 41 | 1011.9 |
| 20260906002520 | 93 | 138 | 0.0 | 0.0 | 0.00 | 0.00 | 0.00 | 39 | 1011.9 |
| 20260906001520 | 94 | 137 | 0.0 | 0.0 | 0.00 | 0.00 | 0.00 | 38 | 1012.1 |
| 20260906000520 | 95 | 121 | 0.0 | 0.0 | 0.00 | 0.00 | 0.00 | 37 | 1012.1 |
| 20260905235520 | 96 | 129 | 0.0 | 0.0 | 0.00 | 0.00 | 0.00 | 36 | 1012.1 |
| 20260905234520 | 96 | 129 | 0.0 | 0.0 | 0.00 | 0.00 | 0.00 | 35 | 1012.1 |
| 20260905233520 | 97 | 119 | 0.0 | 0.0 | 0.00 | 0.00 | 0.00 | 35 | 1012.2 |
| 20260905232520 | 97 | 126 | 0.0 | 0.0 | 0.00 | 0.00 | 0.00 | 34 | 1012.2 |
| 20260905231520 | 98 | 135 | 0.0 | 0.9 | 0.00 | 0.00 | 0.00 | 35 | 1012.2 |
| 20260905230520 | 98 | 63 | 0.0 | 0.0 | 0.00 | 0.00 | 0.00 | 34 | 1012.1 |
| 20260905225520 | 99 | 68 | 0.0 | 5.2 | 0.00 | 0.00 | 0.00 | 33 | 1012.3 |
| 20260905224520 | 99 | 96 | 0.0 | 0.0 | 0.00 | 0.00 | 0.00 | 32 | 1012.3 |
| 20260905223520 | 99 | 71 | 0.0 | 0.0 | 0.00 | 0.00 | 0.00 | 32 | 1012.4 |
| 20260905222520 | 100 | 45 | 0.0 | 1.7 | 0.00 | 0.00 | 0.00 | 31 | 1012.2 |
| 20260905221520 | 102 | 45 | 0.0 | 4.3 | 0.00 | 0.00 | 0.00 | 30 | 1012.2 |
| 20260905220520 | 102 | 90 | 0.0 | 3.5 | 0.00 | 0.00 | 0.00 | 31 | 1012.3 |
| 20260905215520 | 102 | 113 | 0.0 | 2.6 | 0.00 | 0.00 | 0.00 | 30 | 1012.2 |
| 20260905214520 | 101 | 90 | 0.0 | 0.9 | 0.00 | 0.00 | 0.00 | 32 | 1012.2 |
| 20260905213520 | 101 | 68 | 0.0 | 2.6 | 0.00 | 0.00 | 0.00 | 31 | 1012.3 |
| 20260905212520 | 102 | 90 | 0.0 | 7.8 | 0.00 | 0.00 | 0.00 | 31 | 1012.4 |
| 20260905211520 | 101 | 90 | 0.0 | 5.2 | 0.00 | 0.00 | 0.00 | 32 | 1012.3 |
| 20260905210520 | 101 | 45 | 0.0 | 5.2 | 0.00 | 0.00 | 0.00 | 34 | 1012.3 |
| 20260905205522 | 101 | 23 | 1.7 | 7.8 | 0.00 | 0.00 | 0.00 | 34 | 1012.4 |
| 20260905204522 | 101 | 90 | 0.0 | 4.3 | 0.00 | 0.00 | 0.00 | 34 | 1012.7 |
| 20260905203522 | 101 | 90 | 0.0 | 6.1 | 0.00 | 0.00 | 0.00 | 33 | 1012.8 |
| 20260905202522 | 100 | 68 | 0.9 | 5.2 | 0.00 | 0.00 | 0.00 | 33 | 1012.9 |
| 20260905201522 | 100 | 45 | 0.0 | 3.5 | 0.00 | 0.00 | 0.00 | 33 | 1013.1 |
| 20260905200522 | 101 | 68 | 0.0 | 5.2 | 0.00 | 0.00 | 0.00 | 34 | 1013.3 |
| 20260905195522 | 100 | 68 | 0.0 | 3.5 | 0.00 | 0.00 | 0.00 | 36 | 1013.6 |
| 20260905194522 | 101 | 68 | 1.7 | 8.7 | 0.00 | 0.00 | 0.00 | 35 | 1013.7 |
| 20260905193522 | 101 | 110 | 0.0 | 0.0 | 0.00 | 0.00 | 0.00 | 35 | 1013.7 |